Regional Weather Roundup
Issued by NWS

Home | Current Version | Previous Version | Text Only | Print | Product List | Glossary Off
Versions: 1 2 3 4 5 6 7 8 9 10 11 12 13 14 15 16 17 18 19 20 21 22 23 24 25 26 27 28 29 30 31 32 33 34 35 36 37 38 39 40 41 42 43 44 45 46 47 48 49 50

683
ASUS45 KABQ 240601
RWRNM
NEW MEXICO REGIONAL WEATHER ROUNDUP
NATIONAL WEATHER SERVICE ALBUQUERQUE NM
1200 AM MDT THU MAY 24 2018

NOTE: "FAIR" MEANS FEW OR NO CLOUDS BELOW 12,000 FEET AGL WITH NO
       SIGNIFICANT WEATHER OR OBSTRUCTIONS TO VISION.

      THIS PRODUCT IS RELEASED AS TWO VERSIONS.  ONE VERSION NEAR
      THE TOP OF THE HOUR CONTAINING PRELIMINARY DATA FROM ALBUQUERQUE
      AND OTHER STATIONS.  A FINAL VERSION WITH ADDITIONAL DATA IS
      ISSUED ABOUT 10 MINUTES AFTER THE HOUR.

NMZ501-503-504-510>518-240700-
NORTHWEST PLATEAU/NORTHCENTRAL MOUNTAINS

CITY           SKY/WX    TMP DP  RH WIND       PRES   REMARKS
FARMINGTON     FAIR      59  19  21 N7        30.05F
6HR MIN TEMP:  59; 6HR MAX TEMP:  82;

LOS ALAMOS     FAIR      61  49  65 S5        30.22S
SANTA FE       FAIR      63  50  62 SE16      30.15S
6HR MIN TEMP:  63; 6HR MAX TEMP:  81;

TAOS           FAIR      58  40  51 SE12      30.22R
ANGEL FIRE     FAIR      47  43  86 W6        30.31R

$$
NMZ402-403-502-505>509-240700-
WESTCENTRAL MOUNTAINS/SOUTHWEST MOUNTAINS

CITY           SKY/WX    TMP DP  RH WIND       PRES   REMARKS
GALLUP         FAIR      53  12  19 CALM      30.18R
6HR MIN TEMP:  52; 6HR MAX TEMP:  79;

GRANTS         FAIR      65  17  15 NE13G20   30.20R
SILVER CITY    FAIR      55  21  26 NW8       30.13S

$$
NMZ407-409-411-412-240700-
SOUTHERN DESERTS

CITY           SKY/WX    TMP DP  RH WIND       PRES   REMARKS
DEMING         FAIR      70  20  15 W6        30.06R
6HR MIN TEMP:  66; 6HR MAX TEMP:  89;

LAS CRUCES     FAIR      73  43  35 SE10G21   30.10R
HOLLOMAN AFB   FAIR      73  48  41 SE14      30.06R
ALAMOGORDO     FAIR      68  41  37 S9        30.05S
T OR C         FAIR      69  18  14 W8        30.07R
6HR MIN TEMP:  69; 6HR MAX TEMP:  88;


$$
NMZ519>523-240700-
CENTRAL VALLEYS/CENTRAL HIGHLANDS

CITY           SKY/WX    TMP DP  RH WIND       PRES   REMARKS
ALBUQUERQUE    FAIR      70  23  17 S16       30.07R
6HR MIN TEMP:  68; 6HR MAX TEMP:  85;

DOUBLE EAGLE   FAIR      67  22  18 SW15      30.10R
MORIARTY ARPT  FAIR      60  50  69 SE14      30.17R
6HR MIN TEMP:  60; 6HR MAX TEMP:  83;

CLINES CORNERS FAIR      54  48  80 S14       30.23R
6HR MIN TEMP:  54; 6HR MAX TEMP:  74;

BELEN          FAIR      66  19  16 SW12      30.09R
6HR MIN TEMP:  66; 6HR MAX TEMP:  86;

SOCORRO        FAIR      65  25  21 SE5       30.06S
6HR MIN TEMP:  65; 6HR MAX TEMP:  87;


$$
NMZ524>526-539-540-240700-
SOUTHCENTRAL MOUNTAINS

CITY           SKY/WX    TMP DP  RH WIND       PRES   REMARKS
RUIDOSO        FAIR      55  46  71 E6        30.29F

$$
NMZ527>531-240700-
NORTHEAST HIGHLANDS/NORTHEAST PLAINS

CITY           SKY/WX    TMP DP  RH WIND       PRES   REMARKS
LAS VEGAS      FAIR      54  52  93 S10       30.24R
6HR MIN TEMP:  54; 6HR MAX TEMP:  63;

RATON          CLOUDY    59  55  87 S14       30.19R
6HR MIN TEMP:  57; 6HR MAX TEMP:  66;

CLAYTON        FAIR      60  54  80 S17       30.12S
6HR MIN TEMP:  60; 6HR MAX TEMP:  72;


$$
NMZ532>537-240700-
EASTCENTRAL PLAINS

CITY           SKY/WX    TMP DP  RH WIND       PRES   REMARKS
SANTA ROSA     FAIR      64  49  58 S12G17    30.14R
TUCUMCARI      FAIR      61  57  87 E8        30.11R
6HR MIN TEMP:  61; 6HR MAX TEMP:  85; 6HR PCP:  0.20;

CANNON AFB     FAIR      63  56  79 N12       30.14R
6HR MIN TEMP:  63; 6HR MAX TEMP:  77;

CLOVIS AIRPORT FAIR      65  52  62 N15       30.13R

$$
NMZ028-029-538-240700-
SOUTHEAST PLAINS

CITY           SKY/WX    TMP DP  RH WIND       PRES   REMARKS
ROSWELL        FAIR      62  54  74 SW6       30.10R
6HR MIN TEMP:  61; 6HR MAX TEMP:  81;

ARTESIA        FAIR      64  52  63 CALM      30.11R
CARLSBAD       FAIR      62  54  74 SE9       30.07F
6HR MIN TEMP:  59; 6HR MAX TEMP:  77;

HOBBS          FAIR      63  55  77 E8        30.09S


$$




USA.gov is the U.S. government's official web portal to all federal, state and local government web resources and services.